This demonstration page uses our WeatherBlox Daily Observations layout. Learn more.

Left ArrowRight Arrow

39.92423, -83.80882

Hourly Observations for May 31, 2020

Temp ( °F °C ) Dew Point ( °F °C ) Humidity (%) Winds ( mph kmh ) Pressure ( in mb ) Visibility ( mi km ) Precip ( " mm )
12:56 am 00:56 Clear 54 12.2 47 8.3 77 77 N 7 11 30.19 1022 10 16.0934 0 0
1:56 am 01:56 Clear 52 11.1 46 7.8 80 80 N 6 9 30.19 1022 10 16.0934 0 0
2:56 am 02:56 Clear 52 11.1 45 7.2 77 77 NNW 5 7 30.19 1022 10 16.0934 0.04 1.016
3:56 am 03:56 Clear 50 10 44 6.7 80 80 NW 6 9 30.2 1023 10 16.0934 0.01 0.254
4:56 am 04:56 Clear 50 10 44 6.7 80 80 N 9 15 30.21 1023 10 16.0934 0 0
5:56 am 05:56 Clear 49 9.4 44 6.7 83 83 N 9 15 30.24 1024 10 16.0934 0 0
6:56 am 06:56 Sunny 50 10 46 7.8 86 86 N 8 13 30.27 1025 9 14.48406 0 0
7:56 am 07:56 Sunny 54 12.2 48 8.9 80 80 NNE 13 20 30.29 1026 10 16.0934 0 0
8:56 am 08:56 Sunny 58 14.4 47 8.3 67 67 NNE 12 19 30.3 1026 10 16.0934 0 0
9:56 am 09:56 Sunny 60 15.6 42 5.6 52 52 NE 12 19 30.31 1027 10 16.0934 0 0
10:56 am 10:56 Sunny 61 16.1 42 5.6 50 50 N 13 20 30.31 1027 10 16.0934 0 0
11:56 am 11:56 Sunny 63 17.2 42 5.6 47 47 NNW 12 19 30.31 1026 10 16.0934 0 0
12:56 pm 12:56 Sunny 64 17.8 44 6.7 48 48 NNW 12 19 30.31 1026 10 16.0934 0 0
1:56 pm 13:56 Sunny 65 18.3 43 6.1 45 45 NNW 14 22 30.29 1026 10 16.0934 0 0
2:56 pm 14:56 Sunny 66 18.9 43 6.1 43 43 NNW 10 17 30.29 1026 10 16.0934 0 0
3:56 pm 15:56 Sunny 67 19.4 43 6.1 42 42 NNW 12 19 30.28 1025 10 16.0934 0 0
4:56 pm 16:56 Sunny 68 20 43 6.1 40 40 NNW 13 20 30.27 1025 10 16.0934 0 0
5:56 pm 17:56 Sunny 66 18.9 41 5 40 40 NNW 10 17 30.26 1025 10 16.0934 0 0
6:56 pm 18:56 Sunny 64 17.8 40 4.4 41 41 N 12 19 30.26 1025 10 16.0934 0 0
7:56 pm 19:56 Sunny 62 16.7 39 3.9 43 43 N 10 17 30.27 1025 10 16.0934 0 0
8:56 pm 20:56 Sunny 58 14.4 39 3.9 50 50 NNE 8 13 30.28 1025 10 16.0934 0 0
9:56 pm 21:56 Clear 55 12.8 39 3.9 55 55 NNE 6 9 30.29 1026 10 16.0934 0 0
10:56 pm 22:56 Clear 54 12.2 42 5.6 64 64 E 3 6 30.31 1026 10 16.0934 0 0
11:56 pm 23:56 Clear 50 10 43 6.1 77 77 E 6 9 30.32 1027 10 16.0934 0 0

Powered by AerisWeather